Regional Weather Roundup
Issued by NWS

Home | Current Version | Previous Version | Text Only | Print | Product List | Glossary On
Versions: 1 2 3 4 5 6 7 8 9 10 11 12 13 14 15 16 17 18 19 20 21 22 23 24 25 26 27 28 29 30 31 32 33 34 35 36 37 38 39 40 41 42 43 44 45 46 47 48 49 50
000
ASUS44 KFWD 261215
RWRTX
NORTH TEXAS HOURLY WEATHER ROUNDUP
NATIONAL WEATHER SERVICE FORT WORTH TX
600 AM CST MON JAN 26 2015

NOTE: "FAIR" INDICATES FEW OR NO CLOUDS BELOW 12,000 FEET WITH NO
SIGNIFICANT WEATHER AND/OR OBSTRUCTIONS TO VISIBILITY.

TXZ118-119-261300-
DALLAS/FORT WORTH METROPLEX

CITY           SKY/WX    TMP DP  RH WIND       PRES   REMARKS
DFW AIRPORT    CLEAR     37  26  64 N5        30.19S WCI  33
6HR MIN TEMP:  35; 6HR MAX TEMP:  45;

DALLAS LOVE    CLEAR     37  30  75 CALM      30.20S
6HR MIN TEMP:  36; 6HR MAX TEMP:  46;

FTW MEACHAM    CLEAR     40  28  62 CALM      30.20S
6HR MIN TEMP:  40; 6HR MAX TEMP:  47;

DAL-EXECUTIVE  CLEAR     39  27  62 W6        30.19S WCI  35
6HR MIN TEMP:  39; 6HR MAX TEMP:  48;

FTW-ALLIANCE   CLEAR     34  27  75 CALM      30.19S
6HR MIN TEMP:  31; 6HR MAX TEMP:  38;

FTW-SPINKS     CLEAR     32  28  83 CALM      30.22S
6HR MIN TEMP:  31; 6HR MAX TEMP:  44;

ARLINGTON      CLEAR     34  26  72 CALM      30.20S
6HR MIN TEMP:  34; 6HR MAX TEMP:  47;

ADDISON        CLEAR     39  28  65 CALM      30.20F
LANCASTER      CLEAR     37  27  69 W3        30.21S
6HR MIN TEMP:  33; 6HR MAX TEMP:  43;

$$

TXZ091>094-102>105-117-120-121-131>134-261300-
NORTH CENTRAL TEXAS

CITY           SKY/WX    TMP DP  RH WIND       PRES   REMARKS
SHRMAN/DENISON CLEAR     35  30  83 CALM      30.20S
6HR MIN TEMP:  34; 6HR MAX TEMP:  40;

GAINESVILLE    CLEAR     32  28  83 W3        30.20F
6HR MIN TEMP:  31; 6HR MAX TEMP:  38;

BOWIE          CLEAR     32  28  83 CALM      30.19S
6HR MIN TEMP:  31; 6HR MAX TEMP:  42;

BRIDGEPORT     CLEAR     31  24  74 CALM      30.22S
6HR MIN TEMP:  31; 6HR MAX TEMP:  40;

DECATUR        CLEAR     41  25  52 W5        30.20R WCI  38
6HR MIN TEMP:  40; 6HR MAX TEMP:  46;

DENTON         CLEAR     33  27  78 NW6       30.20S WCI  28
6HR MIN TEMP:  32; 6HR MAX TEMP:  40;

MCKINNEY       CLEAR     34  27  75 CALM      30.20S
6HR MIN TEMP:  33; 6HR MAX TEMP:  44;

GREENVILLE     CLEAR     34  30  86 CALM      30.21R
ROCKWALL       CLEAR     38  31  74 CALM      30.19F
6HR MIN TEMP:  35; 6HR MAX TEMP:  47;

TERRELL        CLEAR     36  28  73 CALM      30.20S
6HR MIN TEMP:  36; 6HR MAX TEMP:  46;

WAXAHACHIE     CLEAR     37  29  74 NW3       30.21S
6HR MIN TEMP:  35; 6HR MAX TEMP:  45;

CLEBURNE       CLEAR     37  27  65 NW7       30.22S WCI  32
GRANBURY       CLEAR     33  30  89 CALM      30.23S
6HR MIN TEMP:  32; 6HR MAX TEMP:  43;

$$

TXZ083>090-098>101-113>116-127>130-139>142-154-155-261300-
WESTERN NORTH TEXAS

CITY           SKY/WX    TMP DP  RH WIND       PRES   REMARKS
WICHITA FALLS  CLEAR     34  28  79 W3        30.17F
6HR MIN TEMP:  34; 6HR MAX TEMP:  42;

WF-KICKAPOO    CLEAR    N/A N/A N/A W5        30.20S
VERNON         PTCLDY    37  29  74 SW8       30.19S WCI  30
6HR MIN TEMP:  31; 6HR MAX TEMP:  67;

ABILENE        CLEAR     42  28  57 N3        30.23R
6HR MIN TEMP:  36; 6HR MAX TEMP:  45;

ABILENE-DYESS  CLEAR     36  30  81 NE2       30.23R
6HR MIN TEMP:  34; 6HR MAX TEMP:  46;

BRECKENRIDGE   CLEAR     36  31  82 S3        30.21F
6HR MIN TEMP:  35; 6HR MAX TEMP:  45;

GRAHAM         PTCLDY    31  29  92 CALM      30.19F
6HR MIN TEMP:  29; 6HR MAX TEMP:  35;

MINERAL WELLS  CLEAR     34  28  79 W3        30.19S
6HR MIN TEMP:  32; 6HR MAX TEMP:  42;

STEPHENVILLE   CLEAR     39  31  72 CALM      30.23S
6HR MIN TEMP:  38; 6HR MAX TEMP:  44;

COMANCHE       CLEAR     43  32  63 N5        30.21S
6HR MIN TEMP:  40; 6HR MAX TEMP:  51;

BROWNWOOD      CLEAR     34  30  86 CALM      30.23R
COLEMAN        CLEAR     42  32  68 W3        30.23R
6HR MIN TEMP:  37; 6HR MAX TEMP:  46;

BRADY          CLEAR     39  32  75 W7        30.23S WCI  34
$$

TXZ143>147-156>162-174-175-261300-
CENTRAL TEXAS

CITY           SKY/WX    TMP DP  RH WIND       PRES   REMARKS
WACO           CLEAR     34  29  82 N3        30.21F
6HR MIN TEMP:  31; 6HR MAX TEMP:  45;

WACO-MCGREGOR  CLEAR     36  27  69 N3        30.22S
6HR MIN TEMP:  36; 6HR MAX TEMP:  46;

HILLSBORO      CLEAR     34  26  74 CALM      30.21S
6HR MIN TEMP:  34; 6HR MAX TEMP:  46;

CORSICANA      CLEAR     41  28  60 NW6       30.22R WCI  37
6HR MIN TEMP:  38; 6HR MAX TEMP:  43;

MEXIA          CLEAR     40  28  63 NW6       30.20R WCI  36
6HR MIN TEMP:  40; 6HR MAX TEMP:  47;

HEARNE         CLEAR     37  31  79 NW3       30.22R
6HR MIN TEMP:  35; 6HR MAX TEMP:  44;

CAMERON        CLEAR     42  33  69 NW5       30.22R WCI  39
6HR MIN TEMP:  41; 6HR MAX TEMP:  48;

TEMPLE         CLEAR     37  28  70 N5        30.20S WCI  34
6HR MIN TEMP:  36; 6HR MAX TEMP:  46;

KILLEEN        CLEAR     46  30  54 NW7       30.21R
6HR MIN TEMP:  41; 6HR MAX TEMP:  56;

KILLEEN-SKYLRK CLEAR     43  28  56 NW6       30.18S WCI  39
6HR MIN TEMP:  43; 6HR MAX TEMP:  46;

FORT HOOD      CLEAR     41  31  68 MISG      30.20R
6HR MIN TEMP:  41; 6HR MAX TEMP:  50;

GATESVILLE     CLEAR     37  32  81 CALM      30.24R
HAMILTON       CLEAR     43  31  63 NW6       30.21S WCI  39
6HR MIN TEMP:  40; 6HR MAX TEMP:  45;

LAMPASAS       CLEAR     43  32  66 CALM      30.22R
6HR MIN TEMP:  41; 6HR MAX TEMP:  53;

$$

TXZ095>097-106>112-122>126-135>138-148>153-164>167-261300-
EAST TEXAS

CITY           SKY/WX    TMP DP  RH WIND       PRES   REMARKS
PARIS          CLEAR     36  28  75 NW3       30.19F
6HR MIN TEMP:  34; 6HR MAX TEMP:  43;

SULPHUR SPRNGS CLEAR     39  32  77 NW7       30.22R WCI  34
6HR MIN TEMP:  39; 6HR MAX TEMP:  44;

MOUNT PLEASANT CLEAR     38  32  77 NW6       30.20S WCI  34
6HR MIN TEMP:  38; 6HR MAX TEMP:  46;

GILMER         CLEAR     36  30  79 CALM      30.18S
6HR MIN TEMP:  36; 6HR MAX TEMP:  46;

MINEOLA        CLEAR     36  32  87 CALM      30.20R
TYLER          CLEAR     39  29  67 CALM      30.18S
6HR MIN TEMP:  39; 6HR MAX TEMP:  48;

LONGVIEW       CLEAR     37  29  72 W5        30.18R WCI  33
6HR MIN TEMP:  37; 6HR MAX TEMP:  48;

MARSHALL       CLEAR     42  33  70 NW7       30.19S WCI  37
6HR MIN TEMP:  42; 6HR MAX TEMP:  49;

ATHENS         CLEAR     34  30  86 CALM      30.19S
PALESTINE      CLEAR     32  30  92 CALM      30.21R
HENDERSON      CLEAR     38  31  74 CALM      30.20R
6HR MIN TEMP:  37; 6HR MAX TEMP:  45;

NACOGDOCHES    CLEAR     37  28  70 N3        30.18S
6HR MIN TEMP:  37; 6HR MAX TEMP:  48;

LUFKIN         CLEAR     40  29  64 CALM      30.18S
6HR MIN TEMP:  36; 6HR MAX TEMP:  50;

$$

SUPPLEMENTAL OBSERVATIONS (CENTRAL)

CITY           SKY/WX    TMP DP  RH WIND       PRES   REMARKS
LAKE TEXOMA      N/A     39  32  75 W2          N/A
CADDO GRASSLND   N/A     32  28  86 S1          N/A
PAT MAYSE LAKE   N/A     36  32  87 CALM        N/A
GREENVILLE       N/A     36  30  80 NW3         N/A
ATHENS           N/A     39  30  70 N1          N/A
LAKE LIMESTONE   N/A     37  30  75 N2          N/A
MCGREGOR         N/A     37  32  81 CALM        N/A
TEMPLE           N/A     46  30  53 CALM        N/A
$$

SUPPLEMENTAL OBSERVATIONS (WEST)

CITY           SKY/WX    TMP DP  RH WIND       PRES   REMARKS
MILLERS CREEK    N/A     32  28  86 SW8         N/A  WCI  25
LBJ GRASSLAND    N/A     37  27  65 CALM        N/A
GRANBURY         N/A     32  28  86 CALM        N/A


USA.gov is the U.S. government's official web portal to all federal, state and local government web resources and services.